This demonstration page uses our WeatherBlox Daily Observations layout. Learn more.

Hourly Observations for December 14, 2018

Temp ( °F °C ) Dew Point ( °F °C ) Humidity (%) Winds ( mph kmh ) Pressure ( in mb ) Visibility ( mi km ) Precip ( " mm )
12:15 am 00:15 Partly Cloudy 36 2 34 1 93 93 Calm 30.42 1030 7 11.265408 0 0
12:35 am 00:35 Mostly Cloudy 37 3 36 2 93 93 Calm 30.42 1030 7 11.265408 0 0
12:55 am 00:55 Partly Cloudy 37 3 36 2 93 93 NNE 3 6 30.42 1030 7 11.265408 0 0
1:15 am 01:15 Clear 37 3 36 2 93 93 NNE 5 7 30.42 1030 7 11.265408 0 0
1:35 am 01:35 Clear 36 2 34 1 93 93 Calm 30.42 1030 7 11.265408 0 0
1:55 am 01:55 Clear 34 1 32 0 93 93 Calm 30.42 1030 7 11.265408 0 0
2:15 am 02:15 Clear 36 2 34 1 93 93 N 3 6 30.42 1030 7 11.265408 0 0
2:35 am 02:35 Clear 36 2 34 1 93 93 NNE 3 6 30.42 1030 7 11.265408 0 0
2:55 am 02:55 Clear 36 2 34 1 93 93 N 3 6 30.42 1030 7 11.265408 0 0
3:15 am 03:15 Clear with Mist and Fog 34 1 34 1 100 100 NNE 3 6 30.42 1030 5 8.04672 0 0
3:35 am 03:35 Clear with Mist and Fog 34 1 32 0 93 93 Calm 30.42 1030 5 8.04672 0 0
3:55 am 03:55 Clear with Mist and Fog 34 1 34 1 100 100 Calm 30.42 1030 5 8.04672 0 0
4:15 am 04:15 Clear with Mist and Fog 34 1 34 1 100 100 Calm 30.42 1030 5 8.04672 0 0
4:35 am 04:35 Clear with Mist and Fog 34 1 34 1 100 100 Calm 30.42 1030 5 8.04672 0 0
4:55 am 04:55 Clear with Mist and Fog 34 1 34 1 100 100 Calm 30.39 1029 5 8.04672 0 0
5:15 am 05:15 Clear with Mist and Fog 34 1 34 1 100 100 NNE 3 6 30.42 1030 4 6.437376 0 0
5:35 am 05:35 Clear with Mist and Fog 34 1 34 1 100 100 N 3 6 30.42 1030 4 6.437376 0 0
5:55 am 05:55 Clear with Mist and Fog 34 1 34 1 100 100 Calm 30.45 1031 5 8.04672 0 0
6:15 am 06:15 Clear with Mist and Fog 34 1 34 1 100 100 Calm 30.45 1031 5 8.04672 0 0
6:35 am 06:35 Clear with Mist and Fog 34 1 34 1 100 100 Calm 30.45 1031 4 6.437376 0 0
7:15 am 07:15 Mostly Cloudy with Mist and Fog 34 1 34 1 100 100 Calm 30.45 1031 5 8.04672 0 0
7:35 am 07:35 Mostly Cloudy with Mist and Fog 34 1 34 1 100 100 undefined N/A 30.45 1031 5 8.04672 0 0
7:55 am 07:55 Mostly Cloudy with Mist and Fog 34 1 34 1 100 100 Calm 30.45 1031 4 6.437376 0 0
8:15 am 08:15 Partly Cloudy with Mist and Fog 34 1 34 1 100 100 N 3 6 30.45 1031 4 6.437376 0 0
8:35 am 08:35 Sunny with Mist and Fog 36 2 36 2 100 100 Calm 30.45 1031 4 6.437376 0 0
8:55 am 08:55 Partly Cloudy with Mist and Fog 36 2 36 2 100 100 Calm 30.45 1031 3 4.828032 0 0
9:15 am 09:15 Mostly Cloudy with Mist and Fog 36 2 36 2 100 100 Calm 30.45 1031 3 4.828032 0 0
9:35 am 09:35 Cloudy with Mist and Fog 37 3 37 3 100 100 NE 3 6 30.45 1031 3 4.828032 0 0
9:55 am 09:55 Cloudy with Mist and Fog 37 3 37 3 100 100 Calm 30.45 1031 3 4.828032 0 0
10:15 am 10:15 Cloudy with Mist and Fog 37 3 37 3 100 100 Calm 30.45 1031 3 4.828032 0 0
10:35 am 10:35 Cloudy with Mist and Fog 37 3 37 3 100 100 Calm 30.42 1030 4 6.437376 0 0
10:55 am 10:55 Cloudy with Mist and Fog 39 4 37 3 93 93 Calm 30.42 1030 4 6.437376 0 0
11:15 am 11:15 Cloudy with Mist and Fog 39 4 37 3 93 93 Calm 30.42 1030 3 4.828032 0 0
11:35 am 11:35 Cloudy with Mist and Fog 39 4 37 3 93 93 Calm 30.42 1030 4 6.437376 0 0
11:55 am 11:55 Cloudy with Mist and Fog 41 5 39 4 93 93 Calm 30.42 1030 3 4.828032 0 0
12:15 pm 12:15 Cloudy with Mist and Fog 39 4 39 4 100 100 Calm 30.39 1029 3 4.828032 0 0
12:35 pm 12:35 Cloudy with Mist and Fog 41 5 39 4 93 93 Calm 30.39 1029 3 4.828032 0 0
12:55 pm 12:55 Cloudy with Mist and Fog 41 5 39 4 93 93 Calm 30.39 1029 3 4.828032 0 0
1:15 pm 13:15 Cloudy with Mist and Fog 41 5 41 5 100 100 Calm 30.39 1029 4 6.437376 0 0
1:35 pm 13:35 Cloudy with Mist and Fog 41 5 41 5 100 100 NNE 3 6 30.39 1029 4 6.437376 0 0
1:55 pm 13:55 Cloudy with Mist and Fog 41 5 41 5 100 100 NE 5 7 30.36 1028 4 6.437376 0 0
2:15 pm 14:15 Cloudy with Mist and Fog 41 5 41 5 100 100 NE 5 7 30.36 1028 4 6.437376 0 0
2:35 pm 14:35 Cloudy with Mist and Fog 41 5 41 5 100 100 NE 5 7 30.36 1028 4 6.437376 0 0
2:55 pm 14:55 Cloudy with Mist and Fog 41 5 41 5 100 100 NE 3 6 30.36 1028 4 6.437376 0 0
3:15 pm 15:15 Cloudy with Mist and Fog 41 5 41 5 100 100 Calm 30.36 1028 4 6.437376 0 0
3:35 pm 15:35 Cloudy with Light Rain 41 5 41 5 100 100 Calm 30.36 1028 3 4.828032 0 0
3:55 pm 15:55 Cloudy with Mist and Fog 41 5 41 5 100 100 Calm 30.36 1028 3 4.828032 0 0
4:35 pm 16:35 Cloudy with Mist and Fog 41 5 41 5 100 100 Calm 30.36 1028 3 4.828032 0 0
4:55 pm 16:55 Cloudy with Mist and Fog 41 5 41 5 100 100 NNE 3 6 30.33 1027 4 6.437376 0 0
5:15 pm 17:15 Cloudy with Light Drizzle 41 5 41 5 100 100 Calm 30.33 1027 4 6.437376 0 0
5:35 pm 17:35 Cloudy with Light Rain 41 5 41 5 100 100 Calm 30.36 1028 4 6.437376 0 0
5:55 pm 17:55 Cloudy with Light Rain 41 5 41 5 100 100 N 5 7 30.36 1028 3 4.828032 0 0
6:15 pm 18:15 Cloudy with Rain 41 5 41 5 100 100 NE 5 7 30.33 1027 3 4.828032 0.01 0.254
6:35 pm 18:35 Cloudy with Rain 41 5 41 5 100 100 NNE 5 7 30.33 1027 3 4.828032 0.04 1.016
6:55 pm 18:55 Cloudy with Light Rain 41 5 41 5 100 100 NNE 5 7 30.33 1027 2.5 4.02336 0.06 1.524
7:15 pm 19:15 Cloudy with Light Rain 41 5 41 5 100 100 NNE 5 7 30.33 1027 2.5 4.02336 0.02 0.508
7:35 pm 19:35 Cloudy with Rain 41 5 41 5 100 100 NNE 3 6 30.33 1027 2.5 4.02336 0.04 1.016
7:55 pm 19:55 Cloudy with Light Rain 41 5 41 5 100 100 NNE 3 6 30.33 1027 2 3.218688 0.06 1.524
8:15 pm 20:15 Cloudy with Rain 41 5 41 5 100 100 N 7 11 30.33 1027 2 3.218688 0.03 0.762
8:35 pm 20:35 Cloudy with Rain 41 5 41 5 100 100 NNE 7 11 30.3 1026 2 3.218688 0.06 1.524
8:55 pm 20:55 Cloudy with Rain 41 5 41 5 100 100 NNE 5 7 30.3 1026 2.5 4.02336 0.08 2.032
9:15 pm 21:15 Cloudy with Rain 41 5 41 5 100 100 NNE 6 9 30.3 1026 2 3.218688 0.01 0.254
9:35 pm 21:35 Cloudy with Light Rain 41 5 41 5 100 100 NNE 5 7 30.3 1026 2.5 4.02336 0.04 1.016
9:55 pm 21:55 Cloudy with Rain 41 5 41 5 100 100 NNE 5 7 30.27 1025 2 3.218688 0.05 1.27
10:15 pm 22:15 Cloudy with Light Rain 41 5 41 5 100 100 NE 5 7 30.27 1025 2 3.218688 0.02 0.508
10:35 pm 22:35 Cloudy with Light Rain 41 5 41 5 100 100 NNE 5 7 30.27 1025 2.5 4.02336 0.02 0.508
10:55 pm 22:55 Cloudy with Mist and Fog 41 5 41 5 100 100 N 6 9 30.27 1025 2.5 4.02336 0.02 0.508
11:15 pm 23:15 Cloudy with Mist and Fog 41 5 41 5 100 100 N 6 9 30.27 1025 2.5 4.02336 0 0
11:35 pm 23:35 Cloudy with Mist and Fog 41 5 41 5 100 100 NNE 7 11 30.24 1024 2.5 4.02336 0 0
11:55 pm 23:55 Cloudy with Drizzle 41 5 41 5 100 100 NNE 8 13 30.24 1024 2 3.218688 0 0

Powered by AerisWeather